FW8396 Weather Reports


Display with metric or nautical units.
time (UTC)temp
F
wind
direction
speed
MPH
gust
MPH
rain 1hr
in
rain 24hr
in
rain mn
in
humidity
%
barometer
mb
20260902191546 95 175 1.0 11.0 0.00 0.01 0.00 60 1014.7
20260902190035 95 193 1.0 7.0 0.00 0.01 0.00 61 1014.7
20260902184546 94 144 1.0 6.0 0.00 0.01 0.00 62 1014.9
20260902183034 95 167 0.0 10.0 0.00 0.01 0.00 64 1015.2
20260902181536 94 155 2.0 9.0 0.00 0.01 0.00 64 1015.5
20260902180039 92 161 3.0 10.0 0.00 0.01 0.00 67 1015.9
20260902174534 91 241 3.0 10.0 0.00 0.01 0.00 69 1016.2
20260902173034 90 194 2.0 11.0 0.00 0.01 0.00 69 1016.6
20260902171535 90 177 3.0 11.0 0.00 0.01 0.00 70 1016.4
20260902170039 91 160 3.0 11.0 0.00 0.01 0.00 70 1016.9
20260902164537 90 180 3.0 11.0 0.00 0.01 0.00 73 1017.0
20260902163045 88 194 4.0 11.0 0.00 0.01 0.00 75 1016.9
20260902161535 88 173 3.0 7.0 0.00 0.01 0.00 76 1017.0
20260902160035 87 265 3.0 8.0 0.00 0.01 0.00 79 1017.0
20260902154535 86 188 3.0 9.0 0.00 0.01 0.00 80 1017.0
20260902153035 85 167 1.0 9.0 0.00 0.01 0.00 82 1017.1
20260902151535 85 228 2.0 7.0 0.00 0.01 0.00 83 1016.9
20260902150035 84 204 1.0 7.0 0.00 0.01 0.00 84 1017.0
20260902144542 84 240 2.0 4.0 0.00 0.01 0.00 85 1016.9
20260902143035 83 267 3.0 7.0 0.00 0.01 0.00 85 1017.0
20260902141537 83 234 1.0 7.0 0.00 0.01 0.00 85 1017.1
20260902140037 83 223 1.0 10.0 0.00 0.01 0.00 86 1016.8
20260902134534 83 232 2.0 8.0 0.00 0.01 0.00 86 1016.9
20260902133033 83 234 2.0 8.0 0.00 0.01 0.00 86 1016.8
20260902131534 82 183 1.0 11.0 0.00 0.01 0.00 86 1016.8
20260902130036 82 173 0.0 7.0 0.00 0.01 0.00 86 1016.5
20260902124535 82 242 1.0 7.0 0.00 0.01 0.00 86 1016.4
20260902123049 82 178 1.0 10.0 0.00 0.01 0.00 86 1016.1
20260902121532 82 147 2.0 8.0 0.00 0.01 0.00 87 1015.5
20260902120035 82 0 1.0 9.0 0.00 0.01 0.00 86 1015.4
20260902114535 82 0 1.0 7.0 0.00 0.01 0.00 86 1015.4
20260902113034 82 189 3.0 8.0 0.00 0.01 0.00 86 1015.3
20260902111541 82 209 1.0 7.0 0.00 0.01 0.00 86 1015.5
20260902110035 82 156 1.0 5.0 0.00 0.01 0.00 86 1015.3
20260902104534 82 181 1.0 6.0 0.00 0.01 0.00 86 1015.6
20260902103034 82 254 3.0 9.0 0.00 0.01 0.00 86 1015.6
20260902101535 82 196 1.0 8.0 0.00 0.01 0.00 86 1015.5
20260902100032 82 238 1.0 7.0 0.00 0.01 0.00 86 1015.2
20260902094534 82 98 1.0 6.0 0.00 0.01 0.00 86 1015.2
20260902093036 82 245 2.0 7.0 0.00 0.01 0.00 85 1015.5
20260902091532 82 0 1.0 6.0 0.00 0.01 0.00 85 1015.5
20260902090034 82 219 3.0 10.0 0.00 0.01 0.00 85 1015.2
20260902084534 82 166 3.0 9.0 0.00 0.01 0.00 85 1015.3
20260902083034 82 0 1.0 6.0 0.00 0.01 0.00 85 1015.4
20260902081535 82 185 1.0 7.0 0.00 0.01 0.00 84 1015.6
20260902080031 82 0 0.0 5.0 0.00 0.01 0.00 84 1015.4
20260902074540 82 176 1.0 5.0 0.00 0.01 0.00 84 1015.5
20260902073035 82 224 0.0 5.0 0.00 0.01 0.00 84 1015.8
20260902071534 83 185 1.0 8.0 0.00 0.01 0.00 84 1015.7
20260902070038 83 196 2.0 8.0 0.00 0.01 0.00 84 1015.6
20260902064534 83 208 0.0 6.0 0.00 0.01 0.00 82 1015.6
20260902063041 82 153 1.0 5.0 0.00 0.01 0.00 80 1015.6
20260902061532 82 190 0.0 3.0 0.00 0.01 0.00 78 1015.5
20260902060036 82 0 0.0 3.0 0.00 0.01 0.00 78 1015.5
20260902054540 82 0 0.0 2.0 0.00 0.01 0.00 78 1015.4
20260902053034 82 187 0.0 6.0 0.00 0.01 0.00 79 1015.3
20260902051542 81 219 0.0 3.0 0.00 0.01 0.00 79 1015.4
20260902050055 81 0 1.0 4.0 0.00 0.01 0.00 79 1015.6
20260902044535 81 0 1.0 3.0 0.00 0.01 0.01 80 1015.5
20260902043041 81 228 0.0 3.0 0.00 0.01 0.01 80 1015.5
20260902041534 81 0 0.0 3.0 0.00 0.01 0.01 80 1015.7
20260902040036 81 216 0.0 2.0 0.00 0.01 0.01 80 1015.7
20260902034537 81 0 0.0 2.0 0.00 0.01 0.01 80 1015.7
20260902033035 82 0 0.0 1.0 0.00 0.01 0.01 80 1015.6
20260902031535 82 0 0.0 2.0 0.00 0.01 0.01 80 1015.8
20260902030036 82 0 0.0 2.0 0.00 0.01 0.01 80 1015.4
20260902024539 82 0 0.0 2.0 0.00 0.01 0.01 80 1015.2
20260902023034 82 0 0.0 2.0 0.00 0.01 0.01 80 1015.0
20260902021534 82 0 0.0 2.0 0.00 0.01 0.01 80 1014.9
20260902020034 82 0 0.0 1.0 0.00 0.01 0.01 80 1014.6
20260902014533 82 0 0.0 2.0 0.00 0.01 0.01 80 1014.4
20260902013040 82 0 0.0 2.0 0.00 0.01 0.01 81 1014.2
20260902011537 82 0 0.0 3.0 0.00 0.01 0.01 80 1014.1
20260902010036 82 0 1.0 3.0 0.00 0.01 0.01 80 1014.1
20260902004536 82 0 0.0 3.0 0.00 0.01 0.01 80 1014.3
20260902003036 82 0 1.0 5.0 0.00 0.01 0.01 80 1014.4
20260902001533 82 290 1.0 4.0 0.00 0.01 0.01 81 1014.4
20260902000037 82 0 0.0 3.0 0.00 0.01 0.01 83 1014.3
20260901234535 82 256 0.0 4.0 0.00 0.01 0.01 83 1014.3
20260901233035 82 277 1.0 8.0 0.00 0.01 0.01 83 1014.3
20260901231533 82 317 2.0 5.0 0.00 0.01 0.01 82 1014.4
20260901230049 82 0 0.0 4.0 0.00 0.01 0.01 82 1014.9
20260901224536 83 320 1.0 6.0 0.00 0.01 0.01 83 1015.1
20260901223036 83 0 0.0 6.0 0.01 0.01 0.01 83 1015.0
20260901221531 83 0 0.0 1.0 0.01 0.01 0.01 84 1015.0
20260901220046 85 0 0.0 1.0 0.01 0.01 0.01 82 1014.8
20260901214533 86 58 0.0 2.0 0.01 0.01 0.01 79 1015.1
20260901213045 87 0 0.0 4.0 0.00 0.00 0.00 77 1015.4
20260901211535 88 292 1.0 9.0 0.00 0.00 0.00 71 1015.3
20260901210035 88 20 1.0 5.0 0.00 0.00 0.00 70 1015.0
20260901204539 87 284 0.0 3.0 0.00 0.00 0.00 70 1014.9
20260901203039 87 282 1.0 4.0 0.00 0.00 0.00 72 1015.0
20260901201538 86 276 1.0 3.0 0.00 0.00 0.00 74 1015.2
20260901200035 86 276 0.0 3.0 0.00 0.00 0.00 75 1015.5
20260901194537 86 340 0.0 2.0 0.00 0.17 0.00 78 1016.0
20260901193037 86 0 0.0 3.0 0.00 0.17 0.00 76 1016.3